| time (UTC) | temp F | wind direction | speed knots | gust knots | rain 1hr in | rain 24hr in | rain mn in | humidity % | barometer mb |
| 20260506025016 | 78 | 176 | 0.9 | 1.7 | 0.00 | 0.01 | 0.00 | 83 | 1007.3 |
| 20260506024517 | 78 | 184 | 0.0 | 1.7 | 0.00 | 0.01 | 0.00 | 83 | 1007.2 |
| 20260506024016 | 78 | 166 | 0.0 | 1.7 | 0.00 | 0.01 | 0.00 | 82 | 1007.1 |
| 20260506023516 | 78 | 170 | 0.0 | 0.9 | 0.00 | 0.01 | 0.00 | 82 | 1006.9 |
| 20260506023020 | 78 | 151 | 0.0 | 1.7 | 0.00 | 0.01 | 0.00 | 82 | 1006.8 |
| 20260506022516 | 78 | 156 | 0.0 | 0.9 | 0.00 | 0.01 | 0.00 | 81 | 1006.7 |
| 20260506022017 | 78 | 151 | 0.0 | 1.7 | 0.00 | 0.01 | 0.00 | 81 | 1006.6 |
| 20260506021517 | 78 | 119 | 0.0 | 0.9 | 0.00 | 0.01 | 0.00 | 81 | 1006.6 |
| 20260506021017 | 78 | 157 | 0.0 | 0.9 | 0.00 | 0.01 | 0.00 | 81 | 1006.5 |
| 20260506020517 | 78 | 111 | 0.0 | 2.6 | 0.00 | 0.01 | 0.00 | 81 | 1006.3 |
| 20260506020020 | 79 | 176 | 0.0 | 0.9 | 0.00 | 0.01 | 0.00 | 80 | 1006.2 |
| 20260506015517 | 79 | 153 | 0.0 | 1.7 | 0.00 | 0.01 | 0.00 | 80 | 1006.3 |
| 20260506015020 | 79 | 155 | 0.0 | 0.9 | 0.00 | 0.01 | 0.00 | 80 | 1006.3 |
| 20260506014517 | 79 | 133 | 0.0 | 0.9 | 0.00 | 0.01 | 0.00 | 80 | 1006.2 |
| 20260506014017 | 79 | 130 | 0.0 | 1.7 | 0.00 | 0.01 | 0.00 | 80 | 1006.1 |
| 20260506013520 | 79 | 170 | 0.0 | 0.9 | 0.00 | 0.01 | 0.00 | 80 | 1006.2 |
| 20260506013017 | 79 | 163 | 0.0 | 0.9 | 0.00 | 0.01 | 0.00 | 79 | 1006.2 |
| 20260506012517 | 79 | 132 | 0.0 | 1.7 | 0.00 | 0.01 | 0.00 | 79 | 1006.1 |
| 20260506012021 | 80 | 145 | 0.0 | 1.7 | 0.00 | 0.01 | 0.00 | 79 | 1006.1 |
| 20260506011521 | 80 | 150 | 0.0 | 0.9 | 0.00 | 0.01 | 0.00 | 78 | 1006.1 |
| 20260506011018 | 80 | 156 | 0.0 | 0.9 | 0.00 | 0.01 | 0.00 | 78 | 1006.2 |
| 20260506010521 | 80 | 99 | 0.0 | 0.9 | 0.00 | 0.01 | 0.00 | 78 | 1006.2 |
| 20260506010021 | 80 | 111 | 0.0 | 1.7 | 0.00 | 0.01 | 0.00 | 77 | 1006.2 |
| 20260506005518 | 81 | 170 | 0.0 | 0.9 | 0.00 | 0.01 | 0.00 | 77 | 1006.2 |
| 20260506005018 | 81 | 197 | 0.0 | 0.9 | 0.00 | 0.01 | 0.00 | 76 | 1006.2 |
| 20260506004518 | 81 | 136 | 0.0 | 1.7 | 0.00 | 0.01 | 0.00 | 76 | 1006.2 |
| 20260506004018 | 81 | 131 | 0.0 | 1.7 | 0.00 | 0.01 | 0.00 | 75 | 1006.2 |
| 20260506003518 | 81 | 178 | 0.0 | 0.9 | 0.00 | 0.01 | 0.00 | 75 | 1006.1 |
| 20260506003018 | 82 | 197 | 0.0 | 1.7 | 0.00 | 0.01 | 0.00 | 75 | 1006.2 |
| 20260506002518 | 82 | 150 | 0.0 | 0.9 | 0.00 | 0.01 | 0.00 | 74 | 1006.2 |
| 20260506002018 | 82 | 96 | 0.0 | 1.7 | 0.00 | 0.01 | 0.00 | 73 | 1006.2 |
| 20260506001516 | 82 | 136 | 0.0 | 0.9 | 0.00 | 0.01 | 0.00 | 73 | 1006.2 |
| 20260506001019 | 82 | 130 | 0.0 | 0.9 | 0.00 | 0.01 | 0.00 | 72 | 1006.1 |
| 20260506000519 | 82 | 187 | 0.0 | 0.9 | 0.00 | 0.01 | 0.00 | 72 | 1006.1 |
| 20260506000019 | 83 | 151 | 0.9 | 2.6 | 0.00 | 0.01 | 0.00 | 72 | 1006.0 |
| 20260505235516 | 83 | 227 | 0.0 | 1.7 | 0.00 | 0.01 | 0.01 | 72 | 1006.0 |
| 20260505235016 | 83 | 99 | 0.0 | 1.7 | 0.00 | 0.01 | 0.01 | 71 | 1005.9 |
| 20260505234516 | 83 | 148 | 0.0 | 1.7 | 0.00 | 0.01 | 0.01 | 71 | 1005.8 |
| 20260505234021 | 83 | 155 | 0.9 | 2.6 | 0.00 | 0.01 | 0.01 | 71 | 1005.8 |
| 20260505233516 | 83 | 108 | 0.0 | 2.6 | 0.00 | 0.01 | 0.01 | 71 | 1005.8 |
| 20260505233021 | 83 | 136 | 0.9 | 2.6 | 0.00 | 0.01 | 0.01 | 71 | 1005.7 |
| 20260505232516 | 83 | 96 | 0.9 | 2.6 | 0.00 | 0.01 | 0.01 | 71 | 1005.8 |
| 20260505232017 | 84 | 231 | 0.9 | 3.5 | 0.00 | 0.01 | 0.01 | 71 | 1005.7 |
| 20260505231517 | 84 | 126 | 0.9 | 1.7 | 0.00 | 0.01 | 0.01 | 70 | 1005.7 |
| 20260505231019 | 84 | 137 | 0.9 | 1.7 | 0.00 | 0.01 | 0.01 | 70 | 1005.7 |
| 20260505230517 | 84 | 119 | 0.0 | 1.7 | 0.00 | 0.01 | 0.01 | 70 | 1005.7 |
| 20260505230016 | 85 | 137 | 0.0 | 1.7 | 0.00 | 0.01 | 0.01 | 69 | 1005.7 |
| 20260505225516 | 85 | 123 | 0.0 | 1.7 | 0.00 | 0.01 | 0.01 | 69 | 1005.6 |
| 20260505225020 | 85 | 90 | 0.9 | 2.6 | 0.00 | 0.01 | 0.01 | 68 | 1005.6 |
| 20260505224520 | 85 | 93 | 0.0 | 1.7 | 0.00 | 0.01 | 0.01 | 69 | 1005.7 |
| 20260505224020 | 85 | 213 | 0.9 | 3.5 | 0.00 | 0.01 | 0.01 | 68 | 1005.5 |
| 20260505223521 | 85 | 116 | 0.9 | 2.6 | 0.00 | 0.01 | 0.01 | 68 | 1005.5 |
| 20260505223017 | 86 | 149 | 0.9 | 2.6 | 0.00 | 0.01 | 0.01 | 67 | 1005.6 |
| 20260505222518 | 86 | 128 | 0.9 | 2.6 | 0.00 | 0.01 | 0.01 | 66 | 1005.5 |
| 20260505222020 | 86 | 94 | 0.9 | 1.7 | 0.00 | 0.01 | 0.01 | 66 | 1005.5 |
| 20260505221520 | 86 | 108 | 0.9 | 2.6 | 0.00 | 0.01 | 0.01 | 66 | 1005.6 |
| 20260505221020 | 86 | 129 | 0.9 | 1.7 | 0.00 | 0.01 | 0.01 | 67 | 1005.7 |
| 20260505220520 | 86 | 153 | 0.9 | 1.7 | 0.00 | 0.01 | 0.01 | 65 | 1005.7 |
| 20260505220021 | 87 | 143 | 0.9 | 2.6 | 0.00 | 0.01 | 0.01 | 65 | 1005.7 |
| 20260505215518 | 87 | 126 | 0.9 | 2.6 | 0.00 | 0.01 | 0.01 | 64 | 1005.7 |
| 20260505215018 | 87 | 178 | 0.9 | 3.5 | 0.00 | 0.01 | 0.01 | 64 | 1005.9 |
| 20260505214521 | 87 | 248 | 0.9 | 2.6 | 0.00 | 0.01 | 0.01 | 65 | 1006.0 |
| 20260505214021 | 87 | 188 | 0.9 | 3.5 | 0.00 | 0.01 | 0.01 | 65 | 1006.1 |
| 20260505213521 | 87 | 105 | 0.9 | 2.6 | 0.00 | 0.01 | 0.01 | 65 | 1006.0 |
| 20260505213019 | 87 | 141 | 0.9 | 1.7 | 0.00 | 0.01 | 0.01 | 65 | 1006.1 |
| 20260505212518 | 87 | 246 | 0.9 | 3.5 | 0.00 | 0.01 | 0.01 | 65 | 1006.2 |
| 20260505212016 | 86 | 122 | 0.9 | 2.6 | 0.00 | 0.01 | 0.01 | 65 | 1006.3 |
| 20260505211515 | 86 | 134 | 0.9 | 2.6 | 0.00 | 0.01 | 0.01 | 65 | 1006.3 |
| 20260505211019 | 86 | 188 | 0.9 | 4.3 | 0.00 | 0.01 | 0.01 | 66 | 1006.2 |
| 20260505210515 | 86 | 141 | 0.9 | 2.6 | 0.00 | 0.01 | 0.01 | 66 | 1006.2 |
| 20260505210018 | 86 | 116 | 0.9 | 3.5 | 0.00 | 0.01 | 0.01 | 66 | 1006.4 |
| 20260505205516 | 86 | 122 | 0.9 | 2.6 | 0.00 | 0.01 | 0.01 | 66 | 1006.4 |
| 20260505205018 | 87 | 129 | 0.9 | 5.2 | 0.00 | 0.01 | 0.01 | 66 | 1006.4 |
| 20260505204516 | 86 | 139 | 0.9 | 5.2 | 0.00 | 0.01 | 0.01 | 66 | 1006.4 |
| 20260505204016 | 86 | 90 | 0.9 | 4.3 | 0.00 | 0.01 | 0.01 | 67 | 1006.4 |
| 20260505203519 | 86 | 164 | 0.9 | 3.5 | 0.00 | 0.01 | 0.01 | 67 | 1006.7 |
| 20260505203016 | 85 | 167 | 0.9 | 1.7 | 0.00 | 0.01 | 0.01 | 69 | 1006.8 |
| 20260505202516 | 85 | 132 | 0.9 | 3.5 | 0.00 | 0.01 | 0.01 | 68 | 1006.9 |
| 20260505202016 | 86 | 131 | 0.9 | 3.5 | 0.00 | 0.01 | 0.01 | 67 | 1006.9 |
| 20260505201516 | 85 | 114 | 0.9 | 2.6 | 0.00 | 0.01 | 0.01 | 68 | 1007.0 |
| 20260505201017 | 85 | 145 | 0.9 | 1.7 | 0.00 | 0.01 | 0.01 | 69 | 1007.1 |
| 20260505200519 | 86 | 125 | 0.9 | 1.7 | 0.00 | 0.01 | 0.01 | 68 | 1007.2 |
| 20260505200019 | 86 | 117 | 0.9 | 1.7 | 0.00 | 0.01 | 0.01 | 68 | 1007.2 |
| 20260505195516 | 86 | 151 | 0.9 | 2.6 | 0.00 | 0.01 | 0.01 | 68 | 1007.3 |
| 20260505195016 | 85 | 138 | 0.9 | 1.7 | 0.00 | 0.01 | 0.01 | 69 | 1007.4 |
| 20260505194516 | 85 | 150 | 0.9 | 1.7 | 0.00 | 0.01 | 0.01 | 69 | 1007.5 |
| 20260505194016 | 84 | 226 | 0.9 | 2.6 | 0.00 | 0.01 | 0.01 | 69 | 1007.6 |
| 20260505193520 | 84 | 138 | 0.9 | 1.7 | 0.00 | 0.01 | 0.01 | 70 | 1007.6 |
| 20260505193017 | 83 | 108 | 0.9 | 2.6 | 0.00 | 0.01 | 0.01 | 71 | 1007.6 |
| 20260505192517 | 83 | 235 | 0.9 | 1.7 | 0.00 | 0.01 | 0.01 | 72 | 1007.6 |
| 20260505192016 | 83 | 203 | 0.9 | 4.3 | 0.00 | 0.01 | 0.01 | 71 | 1007.6 |
| 20260505191519 | 83 | 229 | 0.9 | 5.2 | 0.00 | 0.01 | 0.01 | 72 | 1007.7 |
| 20260505191016 | 83 | 180 | 0.0 | 1.7 | 0.00 | 0.01 | 0.01 | 72 | 1007.6 |
| 20260505190519 | 82 | 141 | 0.9 | 3.5 | 0.00 | 0.01 | 0.01 | 72 | 1007.7 |
| 20260505190020 | 82 | 49 | 0.0 | 2.6 | 0.00 | 0.01 | 0.01 | 73 | 1007.7 |
| 20260505185519 | 82 | 243 | 0.9 | 5.2 | 0.00 | 0.01 | 0.01 | 72 | 1007.8 |
| 20260505185019 | 82 | 209 | 0.9 | 1.7 | 0.00 | 0.01 | 0.01 | 72 | 1007.8 |
| 20260505184516 | 81 | 198 | 0.9 | 2.6 | 0.00 | 0.01 | 0.01 | 73 | 1007.9 |
| 20260505184016 | 80 | 124 | 0.9 | 2.6 | 0.01 | 0.01 | 0.01 | 74 | 1008.0 |
| 20260505183519 | 80 | 292 | 0.0 | 2.6 | 0.01 | 0.01 | 0.01 | 75 | 1008.1 |
| 20260505183021 | 80 | 268 | 0.9 | 2.6 | 0.01 | 0.01 | 0.01 | 75 | 1008.2 |
| 20260505182519 | 79 | 233 | 0.9 | 4.3 | 0.01 | 0.01 | 0.01 | 76 | 1008.3 |
| 20260505182016 | 79 | 246 | 1.7 | 5.2 | 0.01 | 0.01 | 0.01 | 77 | 1008.3 |
| 20260505181519 | 79 | 244 | 0.9 | 4.3 | 0.01 | 0.01 | 0.01 | 77 | 1008.3 |
| 20260505181017 | 78 | 258 | 0.9 | 3.5 | 0.01 | 0.01 | 0.01 | 78 | 1008.3 |
| 20260505180515 | 78 | 255 | 0.9 | 4.3 | 0.01 | 0.01 | 0.01 | 78 | 1008.4 |
| 20260505180015 | 78 | 258 | 0.9 | 3.5 | 0.01 | 0.01 | 0.01 | 78 | 1008.5 |
| 20260505175517 | 78 | 261 | 1.7 | 3.5 | 0.01 | 0.01 | 0.01 | 78 | 1008.6 |
| 20260505175018 | 78 | 239 | 0.9 | 5.2 | 0.01 | 0.01 | 0.01 | 79 | 1008.6 |
| 20260505174518 | 78 | 248 | 1.7 | 7.0 | 0.01 | 0.01 | 0.01 | 78 | 1008.6 |
| 20260505174015 | 78 | 235 | 0.9 | 5.2 | 0.00 | 0.00 | 0.00 | 79 | 1008.7 |
| 20260505173515 | 78 | 241 | 0.9 | 4.3 | 0.00 | 0.00 | 0.00 | 79 | 1008.7 |
| 20260505173015 | 77 | 245 | 0.9 | 5.2 | 0.00 | 0.00 | 0.00 | 79 | 1008.7 |
| 20260505172516 | 78 | 248 | 1.7 | 5.2 | 0.00 | 0.00 | 0.00 | 79 | 1008.8 |
| 20260505172019 | 78 | 244 | 0.9 | 4.3 | 0.00 | 0.00 | 0.00 | 79 | 1008.8 |
| 20260505171519 | 77 | 165 | 0.9 | 3.5 | 0.00 | 0.00 | 0.00 | 81 | 1008.7 |
| 20260505171019 | 76 | 229 | 0.9 | 4.3 | 0.00 | 0.00 | 0.00 | 81 | 1008.8 |
| 20260505170519 | 76 | 218 | 0.9 | 1.7 | 0.00 | 0.00 | 0.00 | 81 | 1008.9 |
| 20260505170018 | 76 | 166 | 0.9 | 1.7 | 0.00 | 0.00 | 0.00 | 82 | 1008.8 |
| 20260505165522 | 76 | 249 | 1.7 | 4.3 | 0.00 | 0.00 | 0.00 | 82 | 1008.8 |
| 20260505165018 | 75 | 262 | 0.9 | 3.5 | 0.00 | 0.00 | 0.00 | 83 | 1008.8 |
| 20260505164518 | 75 | 223 | 0.9 | 2.6 | 0.00 | 0.00 | 0.00 | 83 | 1008.8 |
| 20260505164021 | 75 | 255 | 0.9 | 2.6 | 0.00 | 0.00 | 0.00 | 83 | 1008.8 |
| 20260505163521 | 74 | 189 | 0.9 | 1.7 | 0.00 | 0.00 | 0.00 | 84 | 1008.8 |
| 20260505163018 | 74 | 238 | 1.7 | 4.3 | 0.00 | 0.00 | 0.00 | 85 | 1008.7 |
| 20260505162518 | 74 | 256 | 1.7 | 3.5 | 0.00 | 0.00 | 0.00 | 85 | 1008.7 |
| 20260505162021 | 74 | 247 | 0.9 | 2.6 | 0.00 | 0.00 | 0.00 | 86 | 1008.8 |
| 20260505161521 | 73 | 194 | 0.9 | 1.7 | 0.00 | 0.00 | 0.00 | 87 | 1008.8 |
| 20260505161023 | 73 | 151 | 0.0 | 0.9 | 0.00 | 0.00 | 0.00 | 87 | 1008.9 |
| 20260505160521 | 72 | 221 | 0.9 | 2.6 | 0.00 | 0.00 | 0.00 | 88 | 1008.9 |
| 20260505153019 | 71 | 147 | 0.0 | 1.7 | 0.00 | 0.00 | 0.00 | 90 | 1009.0 |
| 20260505152519 | 71 | 241 | 0.9 | 2.6 | 0.00 | 0.00 | 0.00 | 90 | 1008.9 |
| 20260505152022 | 71 | 253 | 0.0 | 2.6 | 0.00 | 0.00 | 0.00 | 91 | 1008.9 |
| 20260505151519 | 71 | 234 | 0.9 | 4.3 | 0.00 | 0.00 | 0.00 | 91 | 1008.8 |
| 20260505151019 | 71 | 236 | 0.9 | 3.5 | 0.00 | 0.00 | 0.00 | 91 | 1008.8 |
| 20260505150519 | 71 | 229 | 0.9 | 4.3 | 0.00 | 0.00 | 0.00 | 91 | 1008.7 |
| 20260505140515 | 71 | 239 | 1.7 | 5.2 | 0.00 | 0.00 | 0.00 | 91 | 1008.3 |
| 20260505125021 | 70 | 237 | 0.9 | 3.5 | 0.00 | 0.00 | 0.00 | 91 | 1007.6 |
| 20260505124524 | 70 | 240 | 0.9 | 2.6 | 0.00 | 0.00 | 0.00 | 91 | 1007.5 |
| 20260505124024 | 70 | 223 | 0.9 | 2.6 | 0.00 | 0.00 | 0.00 | 91 | 1007.5 |
| 20260505123524 | 70 | 266 | 0.9 | 3.5 | 0.00 | 0.00 | 0.00 | 92 | 1007.4 |
| 20260505123024 | 70 | 209 | 0.9 | 2.6 | 0.00 | 0.00 | 0.00 | 92 | 1007.4 |
| 20260505122521 | 70 | 98 | 0.9 | 1.7 | 0.00 | 0.00 | 0.00 | 91 | 1007.3 |
| 20260505122021 | 69 | 220 | 0.9 | 3.5 | 0.00 | 0.00 | 0.00 | 91 | 1007.3 |
| 20260505121520 | 69 | 194 | 0.9 | 4.3 | 0.00 | 0.00 | 0.00 | 92 | 1007.2 |
| 20260505121025 | 69 | 186 | 0.9 | 2.6 | 0.00 | 0.00 | 0.00 | 92 | 1007.2 |
| 20260505120522 | 69 | 219 | 1.7 | 3.5 | 0.00 | 0.00 | 0.00 | 91 | 1007.1 |
| 20260505120022 | 69 | 204 | 0.9 | 1.7 | 0.00 | 0.00 | 0.00 | 91 | 1007.0 |
| 20260505115517 | 69 | 208 | 0.9 | 3.5 | 0.00 | 0.00 | 0.00 | 91 | 1006.9 |
| 20260505115023 | 69 | 236 | 0.9 | 4.3 | 0.00 | 0.00 | 0.00 | 91 | 1006.9 |
| 20260505114526 | 69 | 208 | 0.9 | 1.7 | 0.00 | 0.00 | 0.00 | 91 | 1007.0 |
| 20260505114022 | 69 | 224 | 0.9 | 3.5 | 0.00 | 0.00 | 0.00 | 91 | 1007.1 |
| 20260505113517 | 69 | 237 | 0.9 | 4.3 | 0.00 | 0.00 | 0.00 | 91 | 1007.0 |
| 20260505113018 | 69 | 216 | 0.9 | 3.5 | 0.00 | 0.00 | 0.00 | 91 | 1007.1 |
| 20260505112518 | 69 | 204 | 0.9 | 4.3 | 0.00 | 0.00 | 0.00 | 91 | 1007.0 |
| 20260505112021 | 69 | 225 | 0.9 | 6.1 | 0.00 | 0.00 | 0.00 | 91 | 1006.9 |
| 20260505111515 | 69 | 211 | 0.9 | 4.3 | 0.00 | 0.00 | 0.00 | 91 | 1006.9 |
| 20260505111021 | 69 | 180 | 0.9 | 3.5 | 0.00 | 0.00 | 0.00 | 91 | 1007.1 |
| 20260505110515 | 69 | 215 | 0.9 | 2.6 | 0.00 | 0.00 | 0.00 | 91 | 1007.2 |
| 20260505102016 | 70 | 214 | 1.7 | 4.3 | 0.00 | 0.00 | 0.00 | 90 | 1007.2 |
| 20260505101516 | 70 | 208 | 0.9 | 3.5 | 0.00 | 0.00 | 0.00 | 90 | 1007.3 |
| 20260505101021 | 70 | 215 | 0.9 | 5.2 | 0.00 | 0.00 | 0.00 | 89 | 1007.3 |
| 20260505100519 | 70 | 237 | 0.9 | 5.2 | 0.00 | 0.00 | 0.00 | 89 | 1007.2 |
| 20260505100016 | 70 | 222 | 0.9 | 4.3 | 0.00 | 0.00 | 0.00 | 89 | 1007.3 |
| 20260505095516 | 70 | 212 | 0.9 | 2.6 | 0.00 | 0.00 | 0.00 | 89 | 1007.2 |
| 20260505095016 | 70 | 204 | 0.9 | 3.5 | 0.00 | 0.00 | 0.00 | 89 | 1007.0 |
| 20260505094516 | 70 | 193 | 0.9 | 3.5 | 0.00 | 0.00 | 0.00 | 89 | 1007.1 |
| 20260505094016 | 70 | 224 | 0.9 | 4.3 | 0.00 | 0.00 | 0.00 | 89 | 1007.3 |
| 20260505093519 | 70 | 215 | 0.9 | 4.3 | 0.00 | 0.00 | 0.00 | 89 | 1007.4 |
| 20260505093020 | 70 | 233 | 0.9 | 3.5 | 0.00 | 0.00 | 0.00 | 89 | 1007.4 |
| 20260505092516 | 70 | 191 | 0.9 | 2.6 | 0.00 | 0.00 | 0.00 | 89 | 1007.4 |
| 20260505092017 | 70 | 225 | 0.9 | 6.1 | 0.00 | 0.00 | 0.00 | 89 | 1007.2 |
| 20260505091520 | 70 | 218 | 0.9 | 2.6 | 0.00 | 0.00 | 0.00 | 89 | 1007.2 |
| 20260505091020 | 70 | 214 | 0.9 | 5.2 | 0.00 | 0.00 | 0.00 | 89 | 1007.4 |
| 20260505090522 | 70 | 211 | 0.9 | 3.5 | 0.00 | 0.00 | 0.00 | 89 | 1007.5 |
| 20260505090017 | 70 | 234 | 0.9 | 6.1 | 0.00 | 0.00 | 0.00 | 89 | 1007.6 |
| 20260505085520 | 70 | 180 | 0.9 | 3.5 | 0.00 | 0.00 | 0.00 | 89 | 1007.5 |
| 20260505085017 | 70 | 206 | 0.9 | 5.2 | 0.00 | 0.00 | 0.00 | 89 | 1007.5 |
| 20260505084518 | 70 | 194 | 0.9 | 2.6 | 0.00 | 0.00 | 0.00 | 89 | 1007.5 |
| 20260505084017 | 70 | 218 | 0.9 | 4.3 | 0.00 | 0.00 | 0.00 | 89 | 1007.6 |
| 20260505083522 | 70 | 206 | 0.9 | 3.5 | 0.00 | 0.00 | 0.00 | 89 | 1007.6 |
| 20260505083018 | 70 | 178 | 0.9 | 2.6 | 0.00 | 0.00 | 0.00 | 89 | 1007.6 |
| 20260505082521 | 70 | 232 | 1.7 | 7.0 | 0.00 | 0.00 | 0.00 | 89 | 1007.8 |
| 20260505082021 | 70 | 224 | 0.9 | 3.5 | 0.00 | 0.00 | 0.00 | 89 | 1007.8 |
| 20260505081518 | 70 | 208 | 0.9 | 3.5 | 0.00 | 0.00 | 0.00 | 89 | 1007.8 |
| 20260505081021 | 70 | 224 | 0.9 | 3.5 | 0.00 | 0.00 | 0.00 | 89 | 1007.8 |
| 20260505080521 | 70 | 178 | 0.9 | 3.5 | 0.00 | 0.00 | 0.00 | 89 | 1007.9 |
| 20260505080018 | 70 | 166 | 0.9 | 2.6 | 0.00 | 0.00 | 0.00 | 88 | 1008.0 |
| 20260505075521 | 70 | 199 | 0.9 | 4.3 | 0.00 | 0.00 | 0.00 | 88 | 1008.0 |
| 20260505075015 | 70 | 202 | 0.9 | 4.3 | 0.00 | 0.00 | 0.00 | 88 | 1008.1 |
| 20260505074519 | 70 | 204 | 0.9 | 2.6 | 0.00 | 0.00 | 0.00 | 88 | 1008.3 |
| 20260505074018 | 70 | 209 | 0.9 | 4.3 | 0.00 | 0.00 | 0.00 | 88 | 1008.3 |
| 20260505073515 | 70 | 179 | 0.9 | 3.5 | 0.00 | 0.00 | 0.00 | 88 | 1008.3 |
| 20260505073018 | 70 | 205 | 0.9 | 3.5 | 0.00 | 0.00 | 0.00 | 88 | 1008.3 |
| 20260505072515 | 70 | 180 | 0.9 | 2.6 | 0.00 | 0.00 | 0.00 | 88 | 1008.4 |
| 20260505072016 | 70 | 223 | 0.9 | 4.3 | 0.00 | 0.00 | 0.00 | 88 | 1008.5 |
| 20260505071520 | 70 | 177 | 0.9 | 2.6 | 0.00 | 0.00 | 0.00 | 88 | 1008.6 |
| 20260505071015 | 70 | 234 | 1.7 | 6.1 | 0.00 | 0.00 | 0.00 | 88 | 1008.6 |
| 20260505070518 | 70 | 214 | 0.9 | 3.5 | 0.00 | 0.00 | 0.00 | 88 | 1008.6 |
| 20260505070016 | 70 | 192 | 0.9 | 4.3 | 0.00 | 0.00 | 0.00 | 88 | 1008.7 |
| 20260505065516 | 70 | 222 | 1.7 | 6.1 | 0.00 | 0.00 | 0.00 | 87 | 1008.7 |
| 20260505065019 | 70 | 200 | 0.9 | 3.5 | 0.00 | 0.00 | 0.00 | 87 | 1008.7 |
| 20260505064516 | 70 | 219 | 1.7 | 7.0 | 0.00 | 0.00 | 0.00 | 87 | 1008.8 |
| 20260505064019 | 70 | 232 | 1.7 | 5.2 | 0.00 | 0.00 | 0.00 | 87 | 1008.8 |
| 20260505063516 | 70 | 217 | 0.9 | 4.3 | 0.00 | 0.00 | 0.00 | 87 | 1008.8 |
| 20260505063021 | 70 | 209 | 0.9 | 2.6 | 0.00 | 0.00 | 0.00 | 87 | 1009.0 |
| 20260505062516 | 70 | 217 | 0.9 | 3.5 | 0.00 | 0.00 | 0.00 | 87 | 1009.1 |
| 20260505062017 | 70 | 220 | 1.7 | 4.3 | 0.00 | 0.00 | 0.00 | 87 | 1009.1 |
| 20260505061517 | 70 | 209 | 1.7 | 6.1 | 0.00 | 0.00 | 0.00 | 87 | 1009.1 |
| 20260505061020 | 70 | 209 | 0.9 | 4.3 | 0.00 | 0.00 | 0.00 | 86 | 1009.2 |
| 20260505060517 | 70 | 178 | 0.9 | 3.5 | 0.00 | 0.00 | 0.00 | 86 | 1009.1 |
| 20260505060017 | 70 | 219 | 0.9 | 3.5 | 0.00 | 0.00 | 0.00 | 86 | 1009.2 |
| 20260505055520 | 70 | 228 | 0.9 | 2.6 | 0.00 | 0.00 | 0.00 | 86 | 1009.1 |
| 20260505055017 | 70 | 162 | 0.9 | 3.5 | 0.00 | 0.00 | 0.00 | 86 | 1009.1 |
| 20260505054520 | 70 | 175 | 0.9 | 6.1 | 0.00 | 0.00 | 0.00 | 86 | 1009.1 |
| 20260505054022 | 71 | 223 | 0.9 | 3.5 | 0.00 | 0.00 | 0.00 | 86 | 1009.1 |
| 20260505053521 | 71 | 157 | 0.9 | 2.6 | 0.00 | 0.00 | 0.00 | 86 | 1009.2 |
| 20260505053025 | 71 | 206 | 0.9 | 3.5 | 0.00 | 0.00 | 0.00 | 86 | 1009.1 |
| 20260505052517 | 70 | 216 | 0.9 | 5.2 | 0.00 | 0.00 | 0.00 | 86 | 1009.1 |
| 20260505052017 | 70 | 143 | 0.9 | 2.6 | 0.00 | 0.00 | 0.00 | 86 | 1009.1 |
| 20260505051521 | 70 | 210 | 1.7 | 5.2 | 0.00 | 0.00 | 0.00 | 86 | 1009.1 |
| 20260505051018 | 70 | 235 | 0.9 | 4.3 | 0.00 | 0.00 | 0.00 | 86 | 1009.1 |
| 20260505050517 | 71 | 181 | 0.9 | 7.0 | 0.00 | 0.00 | 0.00 | 86 | 1009.0 |
| 20260505041522 | 72 | 168 | 0.9 | 1.7 | 0.00 | 0.00 | 0.00 | 84 | 1009.0 |
| 20260505041015 | 72 | 172 | 0.9 | 3.5 | 0.00 | 0.00 | 0.00 | 83 | 1009.0 |
| 20260505040519 | 72 | 192 | 0.9 | 2.6 | 0.00 | 0.00 | 0.00 | 83 | 1009.1 |
| 20260505040019 | 72 | 211 | 0.9 | 2.6 | 0.00 | 0.00 | 0.00 | 83 | 1009.1 |
| 20260505035516 | 72 | 204 | 0.9 | 1.7 | 0.00 | 0.00 | 0.00 | 83 | 1009.2 |
| 20260505035020 | 72 | 186 | 0.9 | 3.5 | 0.00 | 0.00 | 0.00 | 82 | 1009.1 |
| 20260505034516 | 72 | 139 | 0.9 | 2.6 | 0.00 | 0.00 | 0.00 | 82 | 1009.1 |
| 20260505034019 | 72 | 206 | 0.9 | 2.6 | 0.00 | 0.00 | 0.00 | 82 | 1009.1 |
| 20260505033516 | 73 | 177 | 0.9 | 1.7 | 0.00 | 0.00 | 0.00 | 82 | 1009.1 |
| 20260505033016 | 73 | 120 | 0.9 | 2.6 | 0.00 | 0.00 | 0.00 | 81 | 1009.0 |
| 20260505032516 | 73 | 167 | 0.9 | 3.5 | 0.00 | 0.00 | 0.00 | 81 | 1009.0 |
| 20260505032020 | 73 | 158 | 0.9 | 1.7 | 0.00 | 0.00 | 0.00 | 81 | 1009.0 |
| 20260505031516 | 73 | 163 | 0.9 | 2.6 | 0.00 | 0.00 | 0.00 | 80 | 1009.0 |
| 20260505031019 | 73 | 179 | 0.9 | 2.6 | 0.00 | 0.00 | 0.00 | 80 | 1009.0 |
| 20260505030521 | 73 | 150 | 0.9 | 2.6 | 0.00 | 0.00 | 0.00 | 80 | 1009.0 |
| 20260505030016 | 73 | 212 | 0.9 | 3.5 | 0.00 | 0.00 | 0.00 | 79 | 1009.0 |
| 20260505025519 | 74 | 218 | 0.9 | 2.6 | 0.00 | 0.00 | 0.00 | 79 | 1009.1 |